Regional Weather Roundup
Issued by NWS Wakefield, VA

Home | Current Version | Previous Version | Graphics & Text | Print | Product List | Glossary On
Versions: 1 2 3 4 5 6 7 8 9 10 11 12 13 14 15 16 17 18 19 20 21 22 23 24 25 26 27 28 29 30 31 32 33 34 35 36 37 38 39 40 41 42 43 44 45 46 47 48 49 50
000
ASUS41 KAKQ 290515
RWRAKQ

REGIONAL WEATHER ROUNDUP
NATIONAL WEATHER SERVICE WAKEFIELD VA
100 AM EDT FRI MAY 29 2015

Note: "fair" indicates few or no clouds below 12,000 feet with no
significant weather and/or obstructions to visibility. * = Denotes
station may not report precipitation (e.g., rain,snow,etc.),
thunder or fog.

VAZ042-051-052>054-056-290600-
NORTHERN VIRGINIA

CITY           SKY/WX    TMP DP  RH WIND       PRES   REMARKS
WASH NATIONAL  MOCLDY    78  68  71 NE6       30.21S
DULLES         CLOUDY    72  67  84 W3        30.21S
FORT BELVOIR   CLEAR     69  67  93 CALM      30.20S
QUANTICO       CLEAR     73  69  87 NW7       30.21S
FREDERICKSBRG* CLEAR     73  72  96 CALM      30.19F
STAFFORD*      CLEAR     67  66  96 CALM      30.24S
WARRENTON      CLEAR     67  67 100 CALM      30.21S
CULPEPER*      CLEAR     64  63  98 CALM      30.22S
MANASSAS*      MOCLDY    70  70 100 CALM      30.21S
LEESBURG*      CLEAR     70  68  94 CALM      30.23S
WINCHESTER     CLOUDY    70  64  83 CALM      30.23S
FRONT ROYAL*   CLOUDY    68  64  88 S5        30.23S
LURAY*         FAIR      66  66 100 CALM      30.25R
$$

VAZ048-049-060>072-079>083-290600-
CENTRAL AND SOUTH CENTRAL VIRGINIA

CITY           SKY/WX    TMP DP  RH WIND       PRES   REMARKS
RICHMOND       CLOUDY    74  68  81 CALM      30.21S
CHESTERFIELD*  NOT AVBL
PETERSBURG*    MOCLDY    72  72 100 CALM      30.22S
HANOVER        MOCLDY    70  68  93 CALM      30.22F
TAPPAHANNOCK*  MOCLDY    70  67  88 CALM      30.21F
QUINTON*       FAIR      73  69  89 CALM      30.21S
CHARLOTTSVILLE CLEAR     67  65  93 NW3       30.22F
GORDONSVILLE*  FOG       65  65  99 CALM      30.21F VSB 3/4
ORANGE*        PTCLDY    68  64  88 CALM      30.23F
LOUISA*        PTCLDY    66  66 100 CALM      30.21S
BUMPASS*       FAIR      69  67  93 CALM      30.21S
FARMVILLE*     CLOUDY    69  69  99 CALM      30.20F
CREWE*         FAIR      68  67  94 CALM      30.21F
FORT PICKETT*  FAIR      68  66  94 SE3       30.21F
CHASE CITY*    FAIR      71  68  90 CALM      30.21F
CLARKSVILLE*   FAIR      70  64  83 NE3       30.21S
SOUTH HILL*    PTCLDY    68  67  94 CALM      30.27S
LAWRENCEVILLE* FAIR      70  68  94 CALM      30.22S
EMPORIA*       PTCLDY    68  66  94 CALM      30.23F
$$

VAZ088>098-290600-
SOUTHEAST VIRGINIA

CITY           SKY/WX    TMP DP  RH WIND       PRES   REMARKS
NORFOLK        PTCLDY    72  62  71 S9        30.22S
VIRGINIA BEACH MOCLDY    73  63  70 S6        30.22S
NORFOLK NAVAL  MOCLDY    77  63  61 VRB7      30.23S
WEST POINT*    MOCLDY    76  68  76 SE5       30.23R
SALUDA*        FAIR      72  69  91 S5        30.21R
NEWPORT NEWS   PTCLDY    78  64  61 S10       30.22S
LANGLEY AFB    PTCLDY    73  65  74 S12       30.21S
FORT EUSTIS    PTCLDY    73  71  94 S7        30.20S
WILLIAMSBURG*  MOCLDY    75  70  83 S6        30.23R
HR EXEC AP*    FAIR      70  63  78 S5        30.24F
FRANKLIN*      MOCLDY    70  63  78 S6        30.23S
WAKEFIELD      MOCLDY    72  65  78 S3        30.21F
$$

VAZ020-022-025-037-045-290600-
WEST CENTRAL AND SOUTHWEST VIRGINIA

CITY           SKY/WX    TMP DP  RH WIND       PRES   REMARKS
STAUNTON*      CLEAR     66  63  91 CALM      30.27S
WAYNESBORO*    FAIR      64  63  96 CALM      30.26F
HOT SPRINGS VA PTCLDY    64  56  75 S5        30.34S
LYNCHBURG      CLEAR     65  63  93 CALM      30.24F
DANVILLE       MOCLDY    67  64  90 CALM      30.22S
SOUTH BOSTON*  FAIR      66  63  89 CALM      30.22S
MARTINSVILLE   CLOUDY    67  67 100 CALM      30.25F FOG
ROANOKE        MOCLDY    69  64  84 CALM      30.26S
BLACKSBURG     PTCLDY    64  63  97 CALM      30.31S FOG
DUBLIN*        MOCLDY    64  64 100 CALM      30.29S
MARION*        CLOUDY    63  61  93 CALM      30.31F
HILLSVILLE*    NOT AVBL
RICHLANDS*     FAIR      64  63  96 SE5       30.27F
WISE*          CLOUDY    63  63 100 S3        30.29F
ABINGDON*      MOCLDY    67  63  87 CALM      30.26F
$$

MDZ021>025-VAZ099-100-290600-
SOUTHERN MARYLAND AND THE DELMARVA PENINSULA

CITY           SKY/WX    TMP DP  RH WIND       PRES   REMARKS
PATUXENT RIVER PTCLDY    70  67  90 SE3       30.21S
BAY BRIDGE APT   N/A    N/A N/A N/A S6        30.21F
LEONARDTOWN    PTCLDY    70  66  88 CALM      30.22S
DOVER          NOT AVBL
GEORGETOWN     MOCLDY    69  64  84 S6        30.22F
EASTON         MOCLDY    73  73 100 CALM      30.26R
CAMBRIDGE      PTCLDY    72  68  88 S3        30.21S
SALISBURY      CLEAR     66  61  84 CALM      30.22S
OCEAN CITY     CLEAR     67  63  87 S6        30.23S
WALLOPS ISLAND PTCLDY    67  64  90 S12       30.23F
ACCOMACK*      MOCLDY    70  64  83 S6        30.22S
$$

NCZ012>017-030>032-290600-
NORTH CENTRAL AND EASTERN NORTH CAROLINA

CITY           SKY/WX    TMP DP  RH WIND       PRES   REMARKS
ROANOKE RAPIDS FAIR      70  66  88 S5        30.22S
RALEIGH        PTCLDY    70  68  93 CALM      30.22S
ELIZABETH CITY CLEAR     69  63  81 S6        30.23F
AHOSKIE*       CLEAR     68  63  82 S5        30.23S
EDENTON*       CLEAR     70  64  81 S7        30.24S
CURRITUCK*     CLEAR     69  62  76 CALM      30.24S
KILL DEVIL HLS CLEAR     71  63  75 S3        30.23S
MANTEO         CLEAR     72  63  73 S10       30.24S
CAPE HATTERAS  PTCLDY    73  63  70 S6        30.24S
TARBORO*       MOCLDY    70  65  84 CALM      30.24S
GOLDSBORO      PTCLDY    70  64  80 CALM      30.21S
WASHINGTON     CLEAR     70  62  77 S3        30.24F
GREENVILLE     PTCLDY    70  63  78 S5        30.24S
NEW BERN       CLEAR     65  61  87 CALM      30.25F
WILMINGTON     CLEAR     65  62  90 CALM      30.23S
$$

VAZ048-290600-
ELSEWHERE

CITY           SKY/WX    TMP DP  RH WIND       PRES   REMARKS
HARRISBURG PA  FAIR      68  57  68 N3        30.24R
BALTIMORE      MOCLDY    74  68  81 CALM      30.21R
ANNAPOLIS      MOCLDY    73  68  84 SE7       30.20F
ANDREWS AFB    NOT AVBL
PHILADELPHIA   PTCLDY    76  52  43 NE13      30.23S
HENDERSON NC   CLEAR     70  66  87 S6        30.22S
GREENSBORO     MOCLDY    72  63  73 CALM      30.22S
ROCKY MOUNT    CLOUDY    72  65  78 S6        30.23R
$$

VAZ100-290600-
MARINE

STATION/POSITION TIME  TEMP    WIND        PRES    WAVE   SWELL
                       AIR SEA DIR/SP/G            HT/PER HT/PER
                 (UTC) (F)     (DEG/KT/KT) (MB)    (FT/S) (FT/S)
BRANDYWINE LGT   0400   71 67  210/  9/ 10 1023.3R
CAPE MAY NJ      0400   70 70  190/  5/  7 1022.9R
LEWES DE         0400   72 62  210/  5/  8 1023.0F
15NM E FENWICK I 0450   64 63              1023.4F   3/ 8
OCEAN-CITY-INLET 0400   62 62  200/  7/  9 1023.3S
WACHAPREAGUE VA  0400   71 76  210/  7/ 10 1023.6R
THOMAS POINT MD  0500   73 71  160/  4/  4 1023.5F
GOOSES REEF MD   0500   72 71  180/ 10/ 12 1023.6F   1/ 3
COVE POINT MD    0400   71     180/  7/  8 1023.6R
SOLOMONS ISLAND  0400      73                N/A
BISHOPS HEAD MD  0400   74 75  170/ 11/ 12 1022.7R
PINEY POINT MD   0400          140/  5/  6   N/A
CAMBRIDGE MD     0400   73 75  120/  2/  3 1022.9R
LEWISETTA VA     0400   73 74              1022.5R
RAPPAHANNOCK LGT 0400          160/ 12/ 13 1023.6S
STINGRAY PT      0500   73 73  180/ 10/ 12 1022.8R   1/ 3
YORK RVR RNG VA  0400   75     190/  9/ 10 1022.4S
YORKTOWN VA      0400   74 72  200/  8/  9 1022.6F
JAMESTOWN VA     0500   74 77  180/  8/ 10 1022.1R
DOMINION TERM VA 0400   74     190/ 12/ 14 1023.3S
KIPTOPEKE VA     0400      77  180/ 12/ 13   N/A
CHES BAY BRIDGE  0400   73 71  170/ 10/ 13 1022.9F
CAPE HENRY VA    0400   72     180/  7/ 10 1022.1S
CHESAPEAKE LGHT  0400   67     190/ 20/ 20 1023.9R
WILLOUBY STN VA  0400   74     190/ 15/ 18 1023.9F
CAPE HENRY BUOY  0428      62                N/A     3/ 8
1ST LANDING BUOY 0500      71              1023.0S
CAPE CHARLES BUO 0426      69                N/A     3/ 8   2/ 8
OFFSHORE WE BUOY 0411      66                N/A     4/ 8   3/ 8
64NM E OF VA BCH 0450   67 65  150/  4/  4 1023.5F   4/ 8   3/ 8
DUCK PIER NC     0400   71 57  170/  5/  6 1023.1R
44100 DUCK FRF   0424      67                N/A     3/ 8
44056 DUCK FRF   0411      61                N/A     2/ 8
OREGON INLET NC  0400   71 78  150/  4/  5 1024.0F
HATTERAS NC      0400   75 77  140/  4/  6 1023.6F
DIAMOND SHLS NC  0450   75 77  140/  6/ 10 1023.9F   4/ 9   3/ 9
CAPE LOOKOUT NC  0500   74     150/  4/  5 1023.5F
$$


USA.gov is the U.S. government's official web portal to all federal, state and local government web resources and services.